Theta_e
327 329 327 324 322 321 320 319 318 318 316 314 312 310 307 306 305 306 306 306 306 307 307 305 306 307 308 311 314 317 322 324 326 326 326 326 326 327 326 326 325 323 323
319 319 318 317 316 315 314 314 313 311 310 308 306 303 302 301 302 302 302 302 301 301 301 300 300 301 302 303 305 306 309 312 314 322 325 325 325 326 326 326 325 323 322
317 314 313 313 312 311 310 310 309 308 304 302 301 300 300 300 299 298 299 298 298 299 298 297 297 298 298 299 300 300 302 304 307 310 313 315 316 320 321 321 322 321 321
314 312 311 310 309 308 307 306 304 302 300 299 298 298 298 298 298 297 297 296 296 296 296 296 296 296 296 297 298 298 299 300 301 303 305 306 307 306 309 313 317 318 319
311 309 308 307 306 306 304 302 300 300 299 298 297 296 296 296 295 296 296 296 295 295 295 295 295 295 295 295 295 296 296 296 298 299 301 301 301 301 301 303 305 307 311
308 306 306 305 303 302 300 300 299 299 298 298 297 296 295 294 294 294 295 295 296 295 295 295 294 294 293 293 294 294 294 294 294 295 298 299 299 300 299 301 302 303 305
305 304 302 301 300 299 299 298 298 298 298 297 297 296 294 292 291 293 293 294 294 293 294 294 294 294 293 292 292 292 292 293 293 293 294 295 295 296 297 299 299 300 300
303 301 300 299 299 298 298 297 296 296 295 295 294 293 292 290 289 288 291 291 290 291 291 291 291 292 292 293 293 292 292 291 291 292 293 294 294 295 296 297 298 298 300
300 299 299 298 296 295 294 294 293 293 292 291 290 290 290 289 288 287 287 288 288 288 289 289 289 290 291 292 292 292 292 292 290 291 292 293 294 295 296 297 297 297 296
298 296 295 294 293 292 291 290 290 289 289 289 288 289 288 288 288 287 286 287 287 287 288 288 289 289 290 291 291 291 291 291 290 289 291 292 293 293 295 296 296 296 295
295 294 293 292 291 290 290 289 289 288 288 288 288 288 288 288 288 287 287 286 286 287 287 287 288 289 289 290 291 291 291 291 291 290 290 291 292 292 293 294 295 295 295
292 291 290 290 289 289 289 289 288 288 287 287 287 287 287 287 287 285 285 286 287 287 287 287 287 288 289 289 290 291 291 291 291 290 289 290 291 291 292 293 294 295 295
290 290 289 288 288 287 287 287 286 286 286 286 285 283 283 282 282 283 284 283 284 285 286 286 287 287 287 288 289 289 290 290 290 289 289 289 290 291 291 292 293 293 294
289 288 288 287 286 285 284 284 284 284 282 281 280 280 279 280 280 280 281 281 282 284 283 284 286 286 287 287 289 289 289 289 290 289 289 290 290 291 291 291 291 292 292
287 286 285 284 283 282 282 282 282 281 280 279 278 278 278 278 279 279 279 279 280 280 280 281 281 283 284 285 286 288 289 289 289 289 289 290 290 290 291 291 291 291 290
283 282 282 282 281 281 280 280 280 280 279 279 278 277 276 277 278 278 278 277 278 278 278 278 278 279 279 280 283 285 287 289 289 289 289 289 289 289 290 290 290 290 290
281 281 280 280 279 279 279 278 278 277 277 277 277 275 275 276 276 276 276 275 275 275 276 276 277 278 279 280 281 282 285 288 288 288 288 288 289 289 289 289 289 289 289
280 279 279 278 278 277 277 277 277 276 276 275 275 274 273 274 274 274 274 273 272 273 274 275 276 277 277 278 279 281 284 287 288 288 288 288 288 289 288 289 289 289 289
278 278 277 277 276 276 276 276 275 275 274 274 274 273 272 272 272 272 271 270 270 272 272 273 274 274 276 276 276 277 279 287 288 288 288 288 288 288 288 288 289 289 289
277 277 276 276 275 274 274 274 274 273 272 272 272 271 269 270 270 269 269 269 268 269 270 271 272 273 273 274 274 275 276 280 283 286 287 287 288 288 288 288 288 289 289
275 275 275 274 274 273 273 272 272 271 270 270 270 269 268 268 268 268 268 267 267 268 269 269 270 271 271 272 272 273 274 276 278 280 282 285 287 287 288 288 288 289 289
275 274 274 273 272 271 271 271 270 270 269 268 268 267 266 266 266 266 266 266 266 266 267 268 268 270 270 270 270 272 272 273 275 276 279 282 285 287 288 289 289 289 289
273 272 272 271 270 270 269 269 268 267 266 266 265 265 265 265 265 264 264 265 266 266 267 267 267 268 268 268 269 270 271 272 273 275 277 280 284 286 288 289 289 289 289
272 271 270 270 269 268 267 266 266 266 265 265 265 264 264 264 264 264 265 265 266 267 267 267 266 267 267 268 268 269 270 272 274 278 279 281 283 286 287 289 289 289 289
271 271 270 268 267 266 266 266 265 265 265 264 264 264 264 264 264 264 265 265 266 266 267 267 266 266 266 267 268 270 273 277 280 281 282 284 285 286 288 288 288 289 289
271 269 268 267 266 266 266 265 265 265 265 264 264 264 264 264 264 264 264 265 266 267 268 268 268 267 267 268 269 271 275 279 282 283 284 285 285 287 288 288 288 289 288
Wind_Speed
28 33 32 30 29 29 27 24 22 20 17 18 17 16 17 17 16 15 15 16 16 17 18 18 18 19 19 20 20 19 20 18 8 12 16 19 23 24 26 26 26 26 25
24 28 31 31 29 29 27 24 21 22 18 18 17 18 19 19 18 17 17 17 17 17 19 19 20 20 21 21 20 19 18 20 18 10 13 20 25 26 26 29 32 30 29
28 24 27 27 28 27 26 23 22 20 19 19 20 22 23 24 21 19 18 16 15 17 16 20 19 21 21 21 20 20 20 18 15 11 10 16 15 17 23 25 28 28 29
26 24 26 25 25 24 24 22 21 20 20 21 22 24 25 24 24 21 16 15 15 15 15 16 20 21 19 20 18 20 19 17 16 13 10 14 14 19 16 17 16 21 25
27 22 29 24 22 24 21 20 21 21 21 22 23 25 26 25 23 18 15 14 15 15 19 19 18 18 18 16 16 18 19 16 14 13 12 11 12 14 15 15 17 19 22
20 24 24 24 20 23 20 20 21 21 21 23 24 24 24 23 18 16 15 13 12 14 18 18 18 19 20 20 14 12 13 16 15 11 9 8 11 13 16 17 16 13 3
28 24 21 20 24 18 19 22 21 20 20 22 21 17 19 21 20 13 10 11 14 15 15 18 18 17 18 20 20 16 15 11 12 13 12 11 12 16 19 16 16 15 7
27 26 22 22 16 15 17 16 16 17 18 18 18 16 16 17 21 22 15 13 14 16 16 18 18 19 18 20 20 18 17 15 15 13 14 16 16 17 16 18 19 20 21
26 25 23 18 15 15 16 17 16 17 19 19 18 17 16 14 19 22 19 14 15 16 16 18 22 23 22 21 21 22 22 18 16 15 12 13 14 13 13 15 14 13 4
27 27 23 20 18 14 15 19 18 17 15 14 15 17 16 16 18 23 21 15 16 18 18 20 21 21 22 21 21 21 21 22 22 22 18 14 14 13 11 10 10 9 4
29 28 24 20 17 16 17 17 17 14 14 12 11 14 18 18 19 22 21 18 19 19 20 24 26 24 23 22 20 20 20 21 21 22 21 19 14 13 11 10 9 8 6
27 30 25 21 15 15 16 14 18 16 13 16 17 19 21 22 19 23 22 20 20 22 24 25 26 27 25 23 22 20 19 19 18 20 19 17 16 14 12 11 10 8 6
23 31 23 21 19 15 15 18 20 18 18 16 18 19 21 24 25 24 22 24 25 26 25 26 25 27 27 25 23 21 20 19 18 17 15 17 17 15 13 11 9 6 4
24 22 21 17 18 20 23 22 18 16 17 19 18 20 19 21 24 26 26 28 28 21 28 28 24 25 25 26 26 24 22 20 18 18 17 18 16 13 12 9 9 9 10
24 22 20 22 19 20 24 22 23 25 22 21 23 19 18 20 25 25 27 29 28 27 28 26 24 23 22 22 23 24 25 22 19 18 17 17 16 14 13 10 9 10 8
22 21 21 21 19 20 20 22 21 21 21 20 19 22 24 21 25 26 28 29 26 26 22 20 21 23 23 24 24 25 25 21 20 17 17 16 14 12 12 11 10 11 9
23 22 22 21 20 19 20 19 17 18 15 18 20 22 24 23 24 25 27 25 23 25 22 22 23 25 26 26 27 26 25 22 24 19 17 16 15 14 12 11 10 11 10
28 25 23 23 22 21 19 17 15 17 18 19 19 25 27 26 25 25 27 27 30 30 24 24 24 27 28 28 30 30 26 24 20 18 16 15 16 14 12 11 11 10 9
24 22 24 22 20 17 16 16 15 15 16 18 22 32 34 27 24 24 25 24 23 23 26 26 27 28 28 30 31 32 33 21 18 15 15 15 13 12 13 12 12 11 9
25 22 20 17 17 18 17 17 16 17 16 16 18 21 28 27 29 29 28 27 25 25 26 27 28 28 29 29 31 31 31 28 23 18 17 16 13 12 12 11 10 9 10
21 19 19 19 18 18 18 17 17 17 17 15 16 19 23 20 20 22 24 26 27 27 28 28 29 29 30 29 30 30 29 27 26 25 24 21 18 13 9 9 8 9 8
18 19 19 20 19 20 19 19 17 15 16 17 19 21 25 24 24 24 25 28 30 27 29 28 30 28 29 30 30 29 29 27 28 29 28 25 22 15 8 5 6 7 8
23 23 21 20 21 23 21 15 17 18 18 22 23 25 29 29 30 31 32 33 33 33 32 30 30 30 32 32 29 27 28 28 30 27 26 25 22 18 8 2 3 6 7
24 23 23 24 23 22 20 20 20 20 22 26 28 28 30 31 32 33 34 35 36 35 33 32 31 31 37 35 32 32 31 29 25 24 22 20 19 17 8 3 1 4 5
23 24 23 22 21 19 20 21 22 24 26 27 29 30 31 32 33 35 36 36 37 37 36 35 34 36 38 35 35 34 32 27 24 22 21 18 17 12 6 3 1 3 5
23 22 21 20 19 20 21 21 23 24 26 27 28 29 31 33 34 36 38 37 37 37 37 37 37 38 39 37 37 35 32 27 24 20 18 17 15 13 5 3 2 4 7
Wind_Direction
107 119 118 115 115 111 104 100 96 89 78 66 55 47 42 35 30 28 28 24 26 18 17 3 356 359 353 352 350 353 312 271 267 273 269 275 268 271 277 265 266 256 258
92 103 108 111 108 104 98 93 90 82 69 62 57 51 47 43 41 37 34 34 31 26 20 19 15 9 9 6 1 355 351 337 344 309 288 270 270 274 272 270 269 260 265
102 92 92 94 95 95 94 89 78 75 74 72 65 60 54 47 47 42 43 41 38 39 28 30 23 22 16 9 9 0 355 350 356 340 330 330 337 334 294 275 268 275 282
107 117 100 92 92 83 81 80 83 85 84 77 70 63 57 53 46 42 42 41 38 34 29 35 28 24 14 9 3 4 359 357 357 360 358 350 355 342 337 330 317 295 281
123 110 94 93 92 92 81 81 85 85 83 77 70 62 56 50 43 36 36 34 31 25 31 29 26 22 22 14 4 357 7 2 3 2 2 357 355 355 350 331 321 317 310
90 72 82 106 93 79 87 90 86 84 81 73 66 59 51 44 38 32 31 23 16 6 7 9 13 12 9 9 4 10 9 10 4 355 355 355 346 347 343 341 343 342 326
85 83 87 76 80 92 96 88 83 76 73 68 64 54 43 27 11 11 16 10 1 2 355 356 353 358 357 356 357 356 1 3 5 354 339 336 324 326 329 332 336 332 324
102 99 88 89 83 84 85 82 75 71 67 65 60 51 37 26 15 11 14 10 2 356 355 355 349 342 344 342 339 342 347 344 343 342 335 329 328 329 325 320 317 309 306
104 94 98 99 89 81 74 67 62 62 56 52 50 43 31 20 14 7 14 6 1 356 348 344 346 342 340 332 330 327 327 329 326 325 322 319 315 317 327 330 337 325 305
93 95 92 91 84 77 71 66 61 57 54 50 43 37 29 28 9 14 15 4 355 348 347 344 346 341 332 327 326 321 314 320 333 330 325 317 318 319 317 319 327 319 288
100 96 94 90 83 79 68 64 60 53 51 43 31 23 26 22 10 12 8 4 353 343 337 338 340 337 332 326 321 312 305 310 315 318 319 316 312 312 321 318 316 329 298
103 97 90 85 81 76 82 74 59 53 52 37 33 27 25 24 20 1 0 358 350 340 329 332 331 331 325 322 317 316 310 308 303 307 308 308 313 314 313 313 310 303 295
90 97 99 91 78 75 70 64 57 54 47 37 37 29 18 8 9 3 356 350 349 342 338 331 320 323 321 316 317 317 312 306 303 301 296 300 306 308 301 301 292 294 293
95 88 84 86 88 82 75 66 59 53 50 46 32 23 8 3 2 357 354 350 346 340 335 334 333 321 316 317 317 315 312 306 300 295 291 299 303 299 294 295 292 284 285
91 92 89 86 80 75 70 66 69 61 55 49 36 26 8 0 357 355 355 351 348 344 338 343 341 336 328 321 318 314 305 308 302 299 297 295 298 300 291 281 280 280 263
95 88 86 83 78 75 71 66 59 55 49 45 36 26 10 5 1 359 354 351 352 351 356 353 346 339 330 323 315 311 306 295 298 298 296 294 294 299 298 291 278 273 262
91 87 86 80 71 64 58 52 39 40 38 33 24 18 15 7 6 2 359 354 360 3 1 346 337 334 329 323 317 305 303 303 301 295 293 289 290 292 288 282 278 266 259
93 92 87 80 74 70 64 55 46 32 16 9 14 13 11 10 8 6 4 7 3 0 355 344 339 336 334 333 329 326 297 295 296 299 298 297 290 279 279 271 268 251 243
91 85 82 80 73 68 61 54 47 37 26 14 6 7 10 5 6 8 9 8 355 347 345 342 342 338 335 336 334 334 336 304 297 309 308 307 300 285 275 272 264 253 230
89 89 84 78 69 62 56 51 42 33 26 19 15 6 357 2 3 359 359 356 351 346 343 339 338 338 337 336 337 338 339 346 356 353 344 334 319 299 281 273 259 230 211
93 90 84 75 66 61 55 48 40 32 22 15 9 5 6 7 357 354 352 351 348 341 339 338 337 337 339 337 338 339 339 340 344 346 346 338 334 318 299 276 252 222 203
93 84 77 72 69 64 54 47 39 31 24 16 8 6 11 11 4 357 353 350 350 344 342 337 337 337 339 338 337 336 337 336 337 341 341 339 330 335 325 303 233 199 193
92 86 80 74 69 66 61 49 40 35 27 24 19 13 12 9 6 2 359 358 357 354 353 346 341 339 341 343 344 339 334 331 332 336 334 332 330 339 340 328 166 171 175
91 85 80 75 70 66 60 54 48 40 33 29 25 20 15 12 8 5 4 2 1 0 358 356 350 342 345 349 348 345 343 342 341 339 338 333 331 337 346 341 163 175 174
89 84 79 76 72 66 60 52 46 40 35 30 24 21 17 14 11 8 6 4 1 2 1 1 359 351 350 352 352 351 351 351 347 345 343 342 343 340 347 351 137 153 156
87 86 83 79 73 64 57 51 45 39 33 28 24 21 17 15 12 9 7 4 3 3 2 4 2 2 358 357 357 356 355 352 348 348 348 350 348 348 358 23 116 140 140